PIMOHWEATHER Station Historical Data
Daily Summary for November 20, 2020 Units:  Metric    English   Both
Daily Weekly Monthly Yearly
  High: Low: Average:
Temperature: 34.0 °C 25.0 °C 29.3 °C
Dew Point: 26.0 °C 21.0 °C 22.6 °C
Humidity: 78% 57% 68%
Wind Speed: 31km/h 0km/h 8.8km/h
Wind Gust: 40km/h - -
Wind- - ENE
Pressure: 1014.6 hPa 1010.6 hPa -
Precipitation: 0.00 mm    
 
 
Tabular Data for November 20, 2020
Time Temperature Dew Point Pressure Wind Wind Speed Wind Gust Humidity Rainfall Rate (Hourly) solar
00:04 27.0 °C 21.0 °C 1012.6 hPa NE 3 km/h 4 km/h 68% 0.00 mm 0.00 W/m2
00:09 27.0 °C 21.0 °C 1012.6 hPa Calm   4 km/h 69% 0.00 mm 0.00 W/m2
00:14 27.0 °C 21.0 °C 1012.4 hPa NE 1 km/h 4 km/h 69% 0.00 mm 0.00 W/m2
00:19 27.0 °C 21.0 °C 1012.3 hPa NE 4 km/h 4 km/h 69% 0.00 mm 0.00 W/m2
00:24 27.0 °C 21.0 °C 1012.4 hPa NE 4 km/h 4 km/h 69% 0.00 mm 0.00 W/m2
00:29 27.0 °C 21.0 °C 1012.3 hPa Calm     70% 0.00 mm 0.00 W/m2
00:34 27.0 °C 21.0 °C 1012.3 hPa Calm     70% 0.00 mm 0.00 W/m2
00:39 27.0 °C 21.0 °C 1012.3 hPa Calm     70% 0.00 mm 0.00 W/m2
00:44 27.0 °C 21.0 °C 1012.4 hPa Calm     70% 0.00 mm 0.00 W/m2
00:49 27.0 °C 21.0 °C 1012.2 hPa NE 1 km/h 4 km/h 69% 0.00 mm 0.00 W/m2
00:54 27.0 °C 21.0 °C 1012.1 hPa NE 4 km/h 4 km/h 69% 0.00 mm 0.00 W/m2
00:59 27.0 °C 21.0 °C 1012.0 hPa Calm   4 km/h 69% 0.00 mm 0.00 W/m2
01:04 27.0 °C 21.0 °C 1012.0 hPa NE 1 km/h 4 km/h 69% 0.00 mm 0.00 W/m2
01:09 27.0 °C 21.0 °C 1012.0 hPa NE 3 km/h 4 km/h 69% 0.00 mm 0.00 W/m2
01:14 27.0 °C 21.0 °C 1011.9 hPa NE 1 km/h 4 km/h 69% 0.00 mm 0.00 W/m2
01:19 27.0 °C 21.0 °C 1011.9 hPa Calm     70% 0.00 mm 0.00 W/m2
01:24 27.0 °C 21.0 °C 1011.9 hPa NE 2 km/h 4 km/h 70% 0.00 mm 0.00 W/m2
01:29 27.0 °C 21.0 °C 1012.0 hPa NE 2 km/h 4 km/h 70% 0.00 mm 0.00 W/m2
01:34 27.0 °C 21.0 °C 1011.9 hPa Calm     70% 0.00 mm 0.00 W/m2
01:39 27.0 °C 21.0 °C 1011.9 hPa NE 1 km/h 4 km/h 70% 0.00 mm 0.00 W/m2
01:44 27.0 °C 21.0 °C 1011.9 hPa NE 1 km/h 4 km/h 70% 0.00 mm 0.00 W/m2
01:49 27.0 °C 21.0 °C 1011.8 hPa NE 4 km/h 4 km/h 70% 0.00 mm 0.00 W/m2
01:54 27.0 °C 21.0 °C 1011.7 hPa Calm     70% 0.00 mm 0.00 W/m2
01:59 27.0 °C 21.0 °C 1011.7 hPa NE 2 km/h 4 km/h 71% 0.00 mm 0.00 W/m2
02:04 27.0 °C 21.0 °C 1011.7 hPa NE 2 km/h 4 km/h 72% 0.00 mm 0.00 W/m2
02:09 26.0 °C 21.0 °C 1011.6 hPa NE 9 km/h 12 km/h 73% 0.00 mm 0.00 W/m2
02:14 26.0 °C 21.0 °C 1011.6 hPa NE 5 km/h 8 km/h 74% 0.00 mm 0.00 W/m2
02:19 26.0 °C 21.0 °C 1011.5 hPa NE 4 km/h 4 km/h 74% 0.00 mm 0.00 W/m2
02:24 26.0 °C 21.0 °C 1011.5 hPa NE 5 km/h 8 km/h 73% 0.00 mm 0.00 W/m2
02:29 26.0 °C 21.0 °C 1011.3 hPa NE 4 km/h 4 km/h 73% 0.00 mm 0.00 W/m2
02:34 26.0 °C 21.0 °C 1011.4 hPa NE 3 km/h 4 km/h 73% 0.00 mm 0.00 W/m2
02:39 26.0 °C 21.0 °C 1011.4 hPa NE 4 km/h 4 km/h 73% 0.00 mm 0.00 W/m2
02:44 26.0 °C 21.0 °C 1011.4 hPa NE 5 km/h 8 km/h 73% 0.00 mm 0.00 W/m2
02:49 26.0 °C 21.0 °C 1011.5 hPa Calm     74% 0.00 mm 0.00 W/m2
02:54 26.0 °C 21.0 °C 1011.6 hPa NE 5 km/h 8 km/h 74% 0.00 mm 0.00 W/m2
02:59 26.0 °C 21.0 °C 1011.5 hPa NE 5 km/h 8 km/h 74% 0.00 mm 0.00 W/m2
03:04 26.0 °C 21.0 °C 1011.4 hPa NE 4 km/h 4 km/h 75% 0.00 mm 0.00 W/m2
03:09 26.0 °C 21.0 °C 1011.3 hPa NE 5 km/h 8 km/h 74% 0.00 mm 0.00 W/m2
03:14 26.0 °C 21.0 °C 1011.6 hPa NE 4 km/h 4 km/h 75% 0.00 mm 0.00 W/m2
03:19 26.0 °C 21.0 °C 1011.6 hPa NE 5 km/h 8 km/h 75% 0.00 mm 0.00 W/m2
03:24 26.0 °C 21.0 °C 1011.5 hPa NE 8 km/h 8 km/h 74% 0.00 mm 0.00 W/m2
03:29 26.0 °C 21.0 °C 1011.6 hPa NE 4 km/h 4 km/h 75% 0.00 mm 0.00 W/m2
03:34 26.0 °C 21.0 °C 1011.5 hPa NE 5 km/h 8 km/h 75% 0.00 mm 0.00 W/m2
03:39 26.0 °C 21.0 °C 1011.5 hPa NE 4 km/h 4 km/h 75% 0.00 mm 0.00 W/m2
03:44 26.0 °C 21.0 °C 1011.6 hPa NE 3 km/h 4 km/h 75% 0.00 mm 0.00 W/m2
03:49 26.0 °C 21.0 °C 1011.6 hPa NE 4 km/h 4 km/h 75% 0.00 mm 0.00 W/m2
03:54 26.0 °C 21.0 °C 1011.6 hPa Calm     75% 0.00 mm 0.00 W/m2
03:59 26.0 °C 21.0 °C 1011.5 hPa Calm     75% 0.00 mm 0.00 W/m2
04:04 26.0 °C 21.0 °C 1011.6 hPa Calm     75% 0.00 mm 0.00 W/m2
04:09 26.0 °C 21.0 °C 1011.6 hPa Calm     75% 0.00 mm 0.00 W/m2
04:14 26.0 °C 21.0 °C 1011.6 hPa Calm     75% 0.00 mm 0.00 W/m2
04:19 26.0 °C 21.0 °C 1011.6 hPa Calm     75% 0.00 mm 0.00 W/m2
04:24 26.0 °C 21.0 °C 1011.8 hPa Calm     75% 0.00 mm 0.00 W/m2
04:29 26.0 °C 21.0 °C 1011.9 hPa NE 5 km/h 8 km/h 75% 0.00 mm 0.00 W/m2
04:34 26.0 °C 21.0 °C 1011.8 hPa NE 5 km/h 8 km/h 75% 0.00 mm 0.00 W/m2
04:39 26.0 °C 21.0 °C 1011.9 hPa NE 8 km/h 8 km/h 76% 0.00 mm 0.00 W/m2
04:44 26.0 °C 21.0 °C 1012.0 hPa NE 7 km/h 8 km/h 76% 0.00 mm 0.00 W/m2
04:49 26.0 °C 21.0 °C 1012.0 hPa NE 4 km/h 8 km/h 77% 0.00 mm 0.00 W/m2
04:54 26.0 °C 21.0 °C 1011.9 hPa NE 5 km/h 8 km/h 77% 0.00 mm 0.00 W/m2
04:59 26.0 °C 21.0 °C 1012.0 hPa NE 4 km/h 8 km/h 77% 0.00 mm 0.00 W/m2
05:04 26.0 °C 21.0 °C 1011.9 hPa NE 6 km/h 8 km/h 77% 0.00 mm 0.00 W/m2
05:09 25.0 °C 21.0 °C 1012.0 hPa North 9 km/h 12 km/h 78% 0.00 mm 0.00 W/m2
05:14 26.0 °C 21.0 °C 1012.1 hPa NNE 8 km/h 12 km/h 78% 0.00 mm 0.00 W/m2
05:19 26.0 °C 21.0 °C 1012.3 hPa NNE 6 km/h 8 km/h 78% 0.00 mm 0.00 W/m2
05:24 25.0 °C 21.0 °C 1012.3 hPa NNE 5 km/h 8 km/h 78% 0.00 mm 0.00 W/m2
05:29 26.0 °C 21.0 °C 1012.2 hPa NNE 3 km/h 4 km/h 78% 0.00 mm 0.00 W/m2
05:34 26.0 °C 21.0 °C 1012.3 hPa NNE 4 km/h 4 km/h 78% 0.00 mm 0.00 W/m2
05:39 26.0 °C 21.0 °C 1012.4 hPa NNE 3 km/h 4 km/h 78% 0.00 mm 0.00 W/m2
05:44 26.0 °C 21.0 °C 1012.5 hPa NNE 5 km/h 8 km/h 78% 0.00 mm 0.00 W/m2
05:49 25.0 °C 21.0 °C 1012.4 hPa NNE 1 km/h 4 km/h 78% 0.00 mm 0.00 W/m2
05:54 25.0 °C 21.0 °C 1012.6 hPa North 4 km/h 4 km/h 78% 0.00 mm 0.85 W/m2
05:59 25.0 °C 21.0 °C 1012.7 hPa North 7 km/h 8 km/h 78% 0.00 mm 2.08 W/m2
06:04 25.0 °C 21.0 °C 1012.9 hPa NNE 5 km/h 8 km/h 78% 0.00 mm 4.77 W/m2
06:09 25.0 °C 21.0 °C 1012.9 hPa NNE 5 km/h 8 km/h 78% 0.00 mm 8.19 W/m2
06:14 25.0 °C 21.0 °C 1012.9 hPa NNE 4 km/h 4 km/h 78% 0.00 mm 12.11 W/m2
06:19 25.0 °C 21.0 °C 1013.0 hPa North 5 km/h 8 km/h 78% 0.00 mm 15.17 W/m2
06:24 25.0 °C 21.0 °C 1013.0 hPa North 5 km/h 8 km/h 78% 0.00 mm 19.45 W/m2
06:29 26.0 °C 21.0 °C 1013.0 hPa North 10 km/h 12 km/h 77% 0.00 mm 22.87 W/m2
06:34 26.0 °C 21.0 °C 1013.1 hPa North 6 km/h 8 km/h 77% 0.00 mm 25.56 W/m2
06:39 26.0 °C 21.0 °C 1013.2 hPa North 8 km/h 8 km/h 77% 0.00 mm 28.14 W/m2
06:44 26.0 °C 21.0 °C 1013.3 hPa North 6 km/h 8 km/h 76% 0.00 mm 31.56 W/m2
06:49 26.0 °C 21.0 °C 1013.4 hPa North 8 km/h 12 km/h 76% 0.00 mm 35.11 W/m2
06:54 26.0 °C 21.0 °C 1013.4 hPa North 8 km/h 8 km/h 75% 0.00 mm 39.02 W/m2
06:59 26.0 °C 21.0 °C 1013.5 hPa North 9 km/h 12 km/h 75% 0.00 mm 40.73 W/m2
07:04 26.0 °C 21.0 °C 1013.5 hPa North 8 km/h 8 km/h 75% 0.00 mm 41.10 W/m2
07:09 26.0 °C 21.0 °C 1013.7 hPa North 13 km/h 16 km/h 74% 0.00 mm 42.94 W/m2
07:14 27.0 °C 21.0 °C 1013.6 hPa North 13 km/h 16 km/h 73% 0.00 mm 43.80 W/m2
07:19 26.0 °C 21.0 °C 1013.8 hPa North 10 km/h 12 km/h 73% 0.00 mm 46.73 W/m2
07:24 27.0 °C 21.0 °C 1013.9 hPa North 8 km/h 8 km/h 73% 0.00 mm 47.71 W/m2
07:29 27.0 °C 21.0 °C 1014.0 hPa North 8 km/h 12 km/h 72% 0.00 mm 49.79 W/m2
07:34 27.0 °C 21.0 °C 1013.9 hPa North 6 km/h 8 km/h 72% 0.00 mm 51.14 W/m2
07:39 27.0 °C 21.0 °C 1014.0 hPa North 5 km/h 8 km/h 71% 0.00 mm 53.70 W/m2
07:44 27.0 °C 22.0 °C 1014.0 hPa North 12 km/h 16 km/h 71% 0.00 mm 65.45 W/m2
07:49 28.0 °C 22.0 °C 1014.1 hPa NNW 10 km/h 12 km/h 70% 0.00 mm 81.10 W/m2
07:54 28.0 °C 21.0 °C 1014.1 hPa North 10 km/h 12 km/h 69% 0.00 mm 72.79 W/m2
07:59 28.0 °C 22.0 °C 1014.3 hPa North 14 km/h 16 km/h 69% 0.00 mm 199.90 W/m2
08:04 28.0 °C 22.0 °C 1014.2 hPa North 13 km/h 16 km/h 68% 0.00 mm 242.47 W/m2
08:09 28.0 °C 22.0 °C 1014.3 hPa North 20 km/h 24 km/h 68% 0.00 mm 262.78 W/m2
08:14 29.0 °C 22.0 °C 1014.1 hPa North 12 km/h 16 km/h 67% 0.00 mm 283.20 W/m2
08:19 29.0 °C 22.0 °C 1014.2 hPa North 20 km/h 24 km/h 66% 0.00 mm 288.83 W/m2
08:24 29.0 °C 22.0 °C 1014.4 hPa NNE 16 km/h 28 km/h 66% 0.00 mm 305.35 W/m2
08:29 29.0 °C 22.0 °C 1014.5 hPa NNE 15 km/h 20 km/h 66% 0.00 mm 228.15 W/m2
08:34 29.0 °C 22.0 °C 1014.4 hPa North 15 km/h 20 km/h 67% 0.00 mm 214.21 W/m2
08:39 29.0 °C 22.0 °C 1014.5 hPa North 19 km/h 24 km/h 66% 0.00 mm 510.99 W/m2
08:44 29.0 °C 22.0 °C 1014.5 hPa North 15 km/h 20 km/h 66% 0.00 mm 518.33 W/m2
08:49 29.0 °C 22.0 °C 1014.5 hPa North 22 km/h 28 km/h 66% 0.00 mm 519.19 W/m2
08:54 29.0 °C 22.0 °C 1014.5 hPa North 18 km/h 20 km/h 66% 0.00 mm 242.83 W/m2
08:59 29.0 °C 22.0 °C 1014.4 hPa North 19 km/h 24 km/h 66% 0.00 mm 209.93 W/m2
09:04 29.0 °C 22.0 °C 1014.6 hPa North 14 km/h 20 km/h 66% 0.00 mm 241.61 W/m2
09:09 30.0 °C 22.0 °C 1014.4 hPa North 17 km/h 20 km/h 65% 0.00 mm 662.82 W/m2
09:14 30.0 °C 23.0 °C 1014.4 hPa North 17 km/h 24 km/h 64% 0.00 mm 646.79 W/m2
09:19 30.0 °C 22.0 °C 1014.4 hPa NNE 13 km/h 20 km/h 64% 0.00 mm 338.75 W/m2
09:24 30.0 °C 22.0 °C 1014.3 hPa North 19 km/h 28 km/h 64% 0.00 mm 699.64 W/m2
09:29 31.0 °C 22.0 °C 1014.3 hPa North 15 km/h 20 km/h 63% 0.00 mm 727.41 W/m2
09:34 31.0 °C 22.0 °C 1014.3 hPa North 20 km/h 24 km/h 61% 0.00 mm 633.33 W/m2
09:39 31.0 °C 23.0 °C 1014.4 hPa North 17 km/h 28 km/h 61% 0.00 mm 673.70 W/m2
09:44 31.0 °C 22.0 °C 1014.4 hPa NNE 18 km/h 24 km/h 60% 0.00 mm 763.01 W/m2
09:49 32.0 °C 23.0 °C 1014.4 hPa NNE 18 km/h 24 km/h 59% 0.00 mm 859.29 W/m2
09:54 32.0 °C 23.0 °C 1014.3 hPa North 19 km/h 24 km/h 60% 0.00 mm 740.50 W/m2
09:59 31.0 °C 23.0 °C 1014.3 hPa North 20 km/h 24 km/h 60% 0.00 mm 775.61 W/m2
10:04 32.0 °C 23.0 °C 1014.2 hPa North 20 km/h 28 km/h 61% 0.00 mm 792.12 W/m2
10:09 31.0 °C 23.0 °C 1014.0 hPa NNE 24 km/h 32 km/h 60% 0.00 mm 876.29 W/m2
10:14 31.0 °C 23.0 °C 1014.0 hPa North 22 km/h 32 km/h 61% 0.00 mm 710.04 W/m2
10:19 31.0 °C 23.0 °C 1013.8 hPa North 19 km/h 24 km/h 61% 0.00 mm 738.78 W/m2
10:24 31.0 °C 23.0 °C 1013.8 hPa NNE 13 km/h 20 km/h 61% 0.00 mm 697.92 W/m2
10:29 32.0 °C 23.0 °C 1013.8 hPa NE 18 km/h 28 km/h 60% 0.00 mm 837.14 W/m2
10:34 32.0 °C 23.0 °C 1013.7 hPa North 20 km/h 28 km/h 58% 0.00 mm 811.21 W/m2
10:39 32.0 °C 23.0 °C 1013.6 hPa NNE 12 km/h 20 km/h 58% 0.00 mm 713.09 W/m2
10:44 32.0 °C 23.0 °C 1013.5 hPa North 20 km/h 24 km/h 59% 0.00 mm 226.44 W/m2
10:49 32.0 °C 23.0 °C 1013.4 hPa North 26 km/h 32 km/h 61% 0.00 mm 229.87 W/m2
10:54 32.0 °C 23.0 °C 1013.3 hPa North 10 km/h 12 km/h 61% 0.00 mm 727.90 W/m2
10:59 32.0 °C 23.0 °C 1013.3 hPa NE 14 km/h 16 km/h 59% 0.00 mm 756.53 W/m2
11:04 32.0 °C 23.0 °C 1013.2 hPa North 11 km/h 16 km/h 58% 0.00 mm 750.90 W/m2
11:09 32.0 °C 23.0 °C 1013.1 hPa North 9 km/h 12 km/h 58% 0.00 mm 351.71 W/m2
11:14 32.0 °C 23.0 °C 1013.0 hPa North 12 km/h 16 km/h 59% 0.00 mm 685.33 W/m2
11:19 32.0 °C 23.0 °C 1013.2 hPa NNE 11 km/h 24 km/h 59% 0.00 mm 724.35 W/m2
11:24 32.0 °C 23.0 °C 1013.1 hPa NNE 9 km/h 12 km/h 59% 0.00 mm 753.10 W/m2
11:29 33.0 °C 23.0 °C 1013.1 hPa North 14 km/h 16 km/h 57% 0.00 mm 798.61 W/m2
11:34 33.0 °C 23.0 °C 1012.9 hPa North 16 km/h 24 km/h 59% 0.00 mm 202.59 W/m2
11:39 32.0 °C 23.0 °C 1013.0 hPa North 13 km/h 20 km/h 59% 0.00 mm 188.64 W/m2
11:44 32.0 °C 23.0 °C 1012.9 hPa NNE 18 km/h 20 km/h 59% 0.00 mm 263.27 W/m2
11:49 32.0 °C 23.0 °C 1012.9 hPa North 6 km/h 12 km/h 59% 0.00 mm 238.07 W/m2
11:54 32.0 °C 23.0 °C 1012.7 hPa NE 10 km/h 16 km/h 59% 0.00 mm 224.61 W/m2
11:59 32.0 °C 23.0 °C 1012.6 hPa North 14 km/h 20 km/h 59% 0.00 mm 294.46 W/m2
12:04 32.0 °C 23.0 °C 1012.6 hPa North 13 km/h 16 km/h 59% 0.00 mm 308.41 W/m2
12:09 32.0 °C 23.0 °C 1012.6 hPa North 13 km/h 16 km/h 59% 0.00 mm 352.20 W/m2
12:14 32.0 °C 23.0 °C 1012.4 hPa North 6 km/h 8 km/h 59% 0.00 mm 233.29 W/m2
12:19 32.0 °C 24.0 °C 1012.3 hPa North 15 km/h 20 km/h 61% 0.00 mm 264.98 W/m2
12:24 32.0 °C 24.0 °C 1012.3 hPa NNE 9 km/h 12 km/h 61% 0.00 mm 230.24 W/m2
12:29 32.0 °C 23.0 °C 1012.1 hPa North 15 km/h 20 km/h 59% 0.00 mm 232.44 W/m2
12:34 32.0 °C 24.0 °C 1012.1 hPa NNW 12 km/h 12 km/h 60% 0.00 mm 666.73 W/m2
12:39 33.0 °C 24.0 °C 1012.0 hPa NNW 8 km/h 12 km/h 59% 0.00 mm 844.12 W/m2
12:44 33.0 °C 24.0 °C 1011.8 hPa North 12 km/h 16 km/h 58% 0.00 mm 198.67 W/m2
12:49 33.0 °C 24.0 °C 1011.8 hPa North 15 km/h 20 km/h 59% 0.00 mm 395.15 W/m2
12:54 33.0 °C 24.0 °C 1011.7 hPa NE 14 km/h 20 km/h 60% 0.00 mm 724.84 W/m2
12:59 33.0 °C 24.0 °C 1011.6 hPa North 18 km/h 24 km/h 61% 0.00 mm 136.16 W/m2
13:04 32.0 °C 24.0 °C 1011.6 hPa ENE 17 km/h 24 km/h 61% 0.00 mm 715.30 W/m2
13:09 33.0 °C 24.0 °C 1011.5 hPa NNE 16 km/h 20 km/h 60% 0.00 mm 740.87 W/m2
13:14 33.0 °C 24.0 °C 1011.4 hPa NE 31 km/h 40 km/h 59% 0.00 mm 736.09 W/m2
13:19 34.0 °C 24.0 °C 1011.4 hPa NE 13 km/h 20 km/h 58% 0.00 mm 720.92 W/m2
13:24 34.0 °C 24.0 °C 1011.1 hPa ENE 23 km/h 32 km/h 57% 0.00 mm 726.19 W/m2
13:29 34.0 °C 24.0 °C 1011.1 hPa East 27 km/h 32 km/h 59% 0.00 mm 170.90 W/m2
13:34 33.0 °C 24.0 °C 1011.1 hPa NNE 15 km/h 20 km/h 59% 0.00 mm 247.24 W/m2
13:39 33.0 °C 24.0 °C 1011.0 hPa NE 20 km/h 24 km/h 59% 0.00 mm 548.67 W/m2
13:44 33.0 °C 24.0 °C 1010.9 hPa NE 10 km/h 12 km/h 59% 0.00 mm 250.66 W/m2
13:49 33.0 °C 24.0 °C 1011.0 hPa ENE 18 km/h 24 km/h 59% 0.00 mm 451.05 W/m2
13:54 33.0 °C 24.0 °C 1011.0 hPa ENE 16 km/h 20 km/h 59% 0.00 mm 392.57 W/m2
13:59 33.0 °C 25.0 °C 1011.0 hPa South 21 km/h 28 km/h 65% 0.00 mm 159.53 W/m2
14:04 32.0 °C 25.0 °C 1011.0 hPa South 15 km/h 16 km/h 66% 0.00 mm 165.27 W/m2
14:09 32.0 °C 25.0 °C 1010.8 hPa WNW 9 km/h 12 km/h 65% 0.00 mm 143.99 W/m2
14:14 32.0 °C 25.0 °C 1010.9 hPa WSW 13 km/h 16 km/h 66% 0.00 mm 140.07 W/m2
14:19 32.0 °C 25.0 °C 1010.7 hPa NNW 5 km/h 8 km/h 66% 0.00 mm 153.90 W/m2
14:24 33.0 °C 25.0 °C 1010.8 hPa NNW 15 km/h 20 km/h 63% 0.00 mm 170.05 W/m2
14:29 33.0 °C 24.0 °C 1010.7 hPa NNE 9 km/h 12 km/h 62% 0.00 mm 117.93 W/m2
14:34 33.0 °C 24.0 °C 1010.7 hPa North 9 km/h 12 km/h 60% 0.00 mm 147.90 W/m2
14:39 33.0 °C 24.0 °C 1010.7 hPa North 19 km/h 24 km/h 61% 0.00 mm 105.33 W/m2
14:44 33.0 °C 24.0 °C 1010.9 hPa NNE 14 km/h 20 km/h 61% 0.00 mm 114.87 W/m2
14:49 32.0 °C 24.0 °C 1010.9 hPa NW 26 km/h 32 km/h 62% 0.00 mm 121.36 W/m2
14:54 32.0 °C 26.0 °C 1010.7 hPa SSE 15 km/h 20 km/h 68% 0.00 mm 114.02 W/m2
14:59 32.0 °C 25.0 °C 1010.8 hPa SW 14 km/h 16 km/h 68% 0.00 mm 109.73 W/m2
15:04 32.0 °C 25.0 °C 1010.6 hPa West 4 km/h 4 km/h 68% 0.00 mm 104.10 W/m2
15:09 32.0 °C 25.0 °C 1010.6 hPa WSW 8 km/h 12 km/h 67% 0.00 mm 101.90 W/m2
15:14 32.0 °C 25.0 °C 1010.6 hPa SW 16 km/h 20 km/h 68% 0.00 mm 100.19 W/m2
15:19 31.0 °C 25.0 °C 1010.8 hPa NW 5 km/h 8 km/h 68% 0.00 mm 58.97 W/m2
15:24 31.0 °C 25.0 °C 1010.7 hPa WNW 9 km/h 12 km/h 68% 0.00 mm 58.97 W/m2
15:29 32.0 °C 25.0 °C 1010.7 hPa NNW 10 km/h 12 km/h 67% 0.00 mm 74.50 W/m2
15:34 32.0 °C 24.0 °C 1010.6 hPa NNE 9 km/h 12 km/h 62% 0.00 mm 83.19 W/m2
15:39 32.0 °C 24.0 °C 1010.6 hPa ENE 14 km/h 20 km/h 60% 0.00 mm 106.19 W/m2
15:44 33.0 °C 24.0 °C 1010.6 hPa ENE 19 km/h 24 km/h 59% 0.00 mm 101.41 W/m2
15:49 33.0 °C 24.0 °C 1010.8 hPa NNE 10 km/h 16 km/h 60% 0.00 mm 89.79 W/m2
15:54 33.0 °C 24.0 °C 1010.7 hPa North 13 km/h 20 km/h 61% 0.00 mm 87.10 W/m2
15:59 32.0 °C 24.0 °C 1010.8 hPa NE 13 km/h 20 km/h 61% 0.00 mm 70.71 W/m2
16:04 32.0 °C 24.0 °C 1010.7 hPa NNE 12 km/h 16 km/h 62% 0.00 mm 65.94 W/m2
16:09 32.0 °C 24.0 °C 1010.7 hPa NNE 17 km/h 24 km/h 62% 0.00 mm 58.97 W/m2
16:14 32.0 °C 24.0 °C 1010.9 hPa NNE 14 km/h 20 km/h 62% 0.00 mm 51.99 W/m2
16:19 32.0 °C 24.0 °C 1010.9 hPa NNE 16 km/h 24 km/h 63% 0.00 mm 49.42 W/m2
16:24 32.0 °C 24.0 °C 1010.9 hPa NE 12 km/h 20 km/h 63% 0.00 mm 48.93 W/m2
16:29 32.0 °C 24.0 °C 1011.0 hPa North 15 km/h 28 km/h 63% 0.00 mm 36.33 W/m2
16:34 32.0 °C 24.0 °C 1011.0 hPa North 13 km/h 20 km/h 63% 0.00 mm 29.85 W/m2
16:39 32.0 °C 24.0 °C 1011.1 hPa NNE 15 km/h 24 km/h 64% 0.00 mm 26.79 W/m2
16:44 32.0 °C 24.0 °C 1011.2 hPa NE 10 km/h 16 km/h 64% 0.00 mm 25.94 W/m2
16:49 32.0 °C 24.0 °C 1011.4 hPa NNE 17 km/h 28 km/h 63% 0.00 mm 29.85 W/m2
16:54 31.0 °C 24.0 °C 1011.4 hPa NNE 17 km/h 28 km/h 64% 0.00 mm 30.70 W/m2
16:59 31.0 °C 24.0 °C 1011.5 hPa NNE 14 km/h 16 km/h 64% 0.00 mm 28.99 W/m2
17:04 31.0 °C 24.0 °C 1011.5 hPa NE 15 km/h 20 km/h 64% 0.00 mm 20.31 W/m2
17:09 31.0 °C 24.0 °C 1011.5 hPa North 21 km/h 28 km/h 65% 0.00 mm 13.33 W/m2
17:14 31.0 °C 24.0 °C 1011.7 hPa NNE 16 km/h 28 km/h 65% 0.00 mm 8.56 W/m2
17:19 31.0 °C 24.0 °C 1011.5 hPa NE 15 km/h 20 km/h 66% 0.00 mm 5.99 W/m2
17:24 31.0 °C 24.0 °C 1011.6 hPa NE 12 km/h 16 km/h 66% 0.00 mm 3.43 W/m2
17:29 31.0 °C 24.0 °C 1011.6 hPa NNE 12 km/h 16 km/h 66% 0.00 mm 0.85 W/m2
17:34 31.0 °C 24.0 °C 1011.6 hPa NNE 10 km/h 12 km/h 66% 0.00 mm 0.00 W/m2
17:39 31.0 °C 24.0 °C 1011.8 hPa North 10 km/h 20 km/h 66% 0.00 mm 0.00 W/m2
17:44 31.0 °C 24.0 °C 1012.0 hPa NNE 10 km/h 16 km/h 67% 0.00 mm 0.00 W/m2
17:49 30.0 °C 24.0 °C 1011.9 hPa NNE 10 km/h 16 km/h 67% 0.00 mm 0.00 W/m2
17:54 30.0 °C 24.0 °C 1011.9 hPa NE 19 km/h 24 km/h 67% 0.00 mm 0.00 W/m2
17:59 30.0 °C 24.0 °C 1011.8 hPa NNE 10 km/h 16 km/h 67% 0.00 mm 0.00 W/m2
18:04 30.0 °C 23.0 °C 1012.0 hPa North 8 km/h 12 km/h 67% 0.00 mm 0.00 W/m2
18:09 30.0 °C 24.0 °C 1012.3 hPa North 6 km/h 8 km/h 68% 0.00 mm 0.00 W/m2
18:14 30.0 °C 24.0 °C 1012.2 hPa NNE 9 km/h 12 km/h 68% 0.00 mm 0.00 W/m2
18:19 30.0 °C 24.0 °C 1012.2 hPa North 10 km/h 12 km/h 68% 0.00 mm 0.00 W/m2
18:24 30.0 °C 24.0 °C 1012.2 hPa NNE 9 km/h 12 km/h 68% 0.00 mm 0.00 W/m2
18:29 30.0 °C 24.0 °C 1012.2 hPa North 8 km/h 12 km/h 68% 0.00 mm 0.00 W/m2
18:34 30.0 °C 23.0 °C 1012.4 hPa NE 8 km/h 8 km/h 68% 0.00 mm 0.00 W/m2
18:39 30.0 °C 23.0 °C 1012.4 hPa NNE 9 km/h 12 km/h 68% 0.00 mm 0.00 W/m2
18:44 30.0 °C 23.0 °C 1012.5 hPa NNE 5 km/h 8 km/h 68% 0.00 mm 0.00 W/m2
18:49 30.0 °C 24.0 °C 1012.5 hPa North 10 km/h 12 km/h 69% 0.00 mm 0.00 W/m2
18:54 30.0 °C 24.0 °C 1012.5 hPa North 8 km/h 8 km/h 69% 0.00 mm 0.00 W/m2
18:59 30.0 °C 24.0 °C 1012.7 hPa NNE 5 km/h 8 km/h 69% 0.00 mm 0.00 W/m2
19:04 30.0 °C 23.0 °C 1012.8 hPa North 4 km/h 8 km/h 69% 0.00 mm 0.00 W/m2
19:09 30.0 °C 23.0 °C 1012.9 hPa North 8 km/h 8 km/h 69% 0.00 mm 0.00 W/m2
19:14 30.0 °C 23.0 °C 1012.9 hPa North 9 km/h 12 km/h 69% 0.00 mm 0.00 W/m2
19:19 30.0 °C 23.0 °C 1012.9 hPa NNE 1 km/h 4 km/h 69% 0.00 mm 0.00 W/m2
19:24 30.0 °C 23.0 °C 1012.8 hPa NE 3 km/h 4 km/h 69% 0.00 mm 0.00 W/m2
19:29 30.0 °C 23.0 °C 1012.9 hPa NE 7 km/h 8 km/h 69% 0.00 mm 0.00 W/m2
19:34 30.0 °C 23.0 °C 1013.1 hPa NNE 4 km/h 4 km/h 69% 0.00 mm 0.00 W/m2
19:39 30.0 °C 23.0 °C 1013.0 hPa NNE 3 km/h 4 km/h 69% 0.00 mm 0.00 W/m2
19:44 30.0 °C 23.0 °C 1013.1 hPa North 6 km/h 8 km/h 69% 0.00 mm 0.00 W/m2
19:49 30.0 °C 23.0 °C 1012.9 hPa North 4 km/h 4 km/h 70% 0.00 mm 0.00 W/m2
19:54 29.0 °C 23.0 °C 1013.2 hPa North 6 km/h 8 km/h 70% 0.00 mm 0.00 W/m2
19:59 29.0 °C 23.0 °C 1013.1 hPa North 5 km/h 8 km/h 70% 0.00 mm 0.00 W/m2
20:04 29.0 °C 23.0 °C 1013.2 hPa North 7 km/h 8 km/h 69% 0.00 mm 0.00 W/m2
20:09 29.0 °C 23.0 °C 1013.0 hPa NNE 5 km/h 8 km/h 70% 0.00 mm 0.00 W/m2
20:14 29.0 °C 23.0 °C 1013.2 hPa NNE 6 km/h 8 km/h 70% 0.00 mm 0.00 W/m2
20:19 29.0 °C 23.0 °C 1013.3 hPa NNE 5 km/h 8 km/h 70% 0.00 mm 0.00 W/m2
20:24 29.0 °C 23.0 °C 1013.3 hPa NNE 4 km/h 8 km/h 70% 0.00 mm 0.00 W/m2
20:29 29.0 °C 23.0 °C 1013.4 hPa NE 7 km/h 8 km/h 70% 0.00 mm 0.00 W/m2
20:34 29.0 °C 23.0 °C 1013.6 hPa NNE 5 km/h 8 km/h 70% 0.00 mm 0.00 W/m2
20:39 29.0 °C 23.0 °C 1013.6 hPa NNE 5 km/h 8 km/h 70% 0.00 mm 0.00 W/m2
20:44 29.0 °C 23.0 °C 1013.4 hPa NNE 4 km/h 4 km/h 70% 0.00 mm 0.00 W/m2
20:49 29.0 °C 23.0 °C 1013.5 hPa NNE 5 km/h 8 km/h 70% 0.00 mm 0.00 W/m2
20:54 29.0 °C 23.0 °C 1013.4 hPa North 6 km/h 8 km/h 70% 0.00 mm 0.00 W/m2
20:59 29.0 °C 23.0 °C 1013.4 hPa North 10 km/h 12 km/h 71% 0.00 mm 0.00 W/m2
21:04 29.0 °C 23.0 °C 1013.4 hPa NNE 4 km/h 8 km/h 71% 0.00 mm 0.00 W/m2
21:09 29.0 °C 23.0 °C 1013.3 hPa North 1 km/h 4 km/h 71% 0.00 mm 0.00 W/m2
21:14 29.0 °C 23.0 °C 1013.4 hPa NNE 4 km/h 4 km/h 71% 0.00 mm 0.00 W/m2
21:19 29.0 °C 23.0 °C 1013.4 hPa Calm     71% 0.00 mm 0.00 W/m2
21:24 29.0 °C 23.0 °C 1013.3 hPa NNE 4 km/h 4 km/h 71% 0.00 mm 0.00 W/m2
21:29 29.0 °C 23.0 °C 1013.6 hPa North 4 km/h 4 km/h 71% 0.00 mm 0.00 W/m2
21:34 29.0 °C 23.0 °C 1013.5 hPa NNE 4 km/h 4 km/h 71% 0.00 mm 0.00 W/m2
21:39 29.0 °C 23.0 °C 1013.5 hPa NNE 4 km/h 4 km/h 71% 0.00 mm 0.00 W/m2
21:44 29.0 °C 23.0 °C 1013.5 hPa NNE 4 km/h 4 km/h 71% 0.00 mm 0.00 W/m2
21:49 29.0 °C 23.0 °C 1013.5 hPa NNE 4 km/h 4 km/h 71% 0.00 mm 0.00 W/m2
21:54 29.0 °C 23.0 °C 1013.7 hPa NNE 5 km/h 8 km/h 71% 0.00 mm 0.00 W/m2
21:59 29.0 °C 23.0 °C 1013.7 hPa ENE 4 km/h 4 km/h 71% 0.00 mm 0.00 W/m2
22:04 29.0 °C 23.0 °C 1013.8 hPa ENE 3 km/h 4 km/h 70% 0.00 mm 0.00 W/m2
22:09 29.0 °C 23.0 °C 1013.6 hPa Calm     70% 0.00 mm 0.00 W/m2
22:14 29.0 °C 23.0 °C 1013.7 hPa ENE 4 km/h 4 km/h 70% 0.00 mm 0.00 W/m2
22:19 29.0 °C 23.0 °C 1013.7 hPa ENE 1 km/h 4 km/h 70% 0.00 mm 0.00 W/m2
22:24 29.0 °C 23.0 °C 1013.6 hPa Calm   4 km/h 70% 0.00 mm 0.00 W/m2
22:29 29.0 °C 23.0 °C 1013.4 hPa Calm     71% 0.00 mm 0.00 W/m2
22:34 29.0 °C 23.0 °C 1013.5 hPa Calm     71% 0.00 mm 0.00 W/m2
22:39 29.0 °C 23.0 °C 1013.5 hPa ENE 1 km/h 4 km/h 71% 0.00 mm 0.00 W/m2
22:44 29.0 °C 23.0 °C 1013.6 hPa Calm     71% 0.00 mm 0.00 W/m2
22:49 29.0 °C 23.0 °C 1013.6 hPa Calm     71% 0.00 mm 0.00 W/m2
22:54 29.0 °C 23.0 °C 1013.5 hPa Calm     71% 0.00 mm 0.00 W/m2
22:59 29.0 °C 23.0 °C 1013.6 hPa Calm     71% 0.00 mm 0.00 W/m2
23:04 29.0 °C 23.0 °C 1013.4 hPa ENE 1 km/h 4 km/h 71% 0.00 mm 0.00 W/m2
23:09 29.0 °C 23.0 °C 1013.5 hPa NE 4 km/h 4 km/h 72% 0.00 mm 0.00 W/m2
23:14 29.0 °C 23.0 °C 1013.3 hPa NE 8 km/h 8 km/h 72% 0.00 mm 0.00 W/m2
23:19 29.0 °C 23.0 °C 1013.3 hPa NE 7 km/h 8 km/h 72% 0.00 mm 0.00 W/m2
23:24 29.0 °C 23.0 °C 1013.3 hPa NE 2 km/h 4 km/h 72% 0.00 mm 0.00 W/m2
23:29 29.0 °C 23.0 °C 1013.4 hPa Calm   4 km/h 72% 0.00 mm 0.00 W/m2
23:34 29.0 °C 23.0 °C 1013.5 hPa NE 5 km/h 8 km/h 72% 0.00 mm 0.00 W/m2
23:39 29.0 °C 23.0 °C 1013.5 hPa NE 6 km/h 8 km/h 72% 0.00 mm 0.00 W/m2
23:44 29.0 °C 23.0 °C 1013.5 hPa NE 4 km/h 4 km/h 72% 0.00 mm 0.00 W/m2
23:49 29.0 °C 23.0 °C 1013.5 hPa NE 6 km/h 8 km/h 72% 0.00 mm 0.00 W/m2
23:54 29.0 °C 23.0 °C 1013.5 hPa NE 5 km/h 8 km/h 72% 0.00 mm 0.00 W/m2
23:59 29.0 °C 23.0 °C 1013.6 hPa NE 5 km/h 8 km/h 72% 0.00 mm 0.00 W/m2
PIMOHWEATHER Philippines
Compliments of Weather Underground - 2 mb